Location: Lecco
(45.8566°N, 9.3977°E)
Time: 21:44:33
(UTC+02:00)

Vanguard 1 Rocket - Pass Details

Date: 16 August 2020
Orbit: 655 x 4221 km, 34.3° (Epoch: 30 September)

Event Time Altitude Azimuth Distance (km) Brightness Sun altitude
Exits shadow 05:45:10 - 225° (SW) 5,690 10.8 -7.0°
Reaches altitude 10° 05:47:59 10° 220° (SW) 4,870 10.5 -6.5°
Maximum altitude 05:57:35 27° 169° (S) 2,555 9.6 -5.0°
Drops below altitude 10° 06:03:32 10° 113° (ESE) 2,926 10.7 -4.1°
Sets 06:06:03 0° 100° (E) 3,593 11.5 -3.7°
